Regional Weather Roundup
Issued by NWS

Home | Current Version | Previous Version | Graphics & Text | Print | Product List | Glossary On
Versions: 1 2 3 4 5 6 7 8 9 10 11 12 13 14 15 16 17 18 19 20 21 22 23 24 25 26 27 28 29 30 31 32 33 34 35 36 37 38 39 40 41 42 43 44 45 46 47 48
000
ASUS45 KBOU 210010
RWRCO

WEATHER ROUNDUP FOR COLORADO
NATIONAL WEATHER SERVICE PUEBLO CO
600 PM MDT FRI APR 20 2018

NOTE: "FAIR" INDICATES FEW OR NO CLOUDS BELOW 12000 FEET WITH NO
SIGNIFICANT WEATHER AND/OR OBSTRUCTIONS TO VISIBILITY.

COZ001>005-013-030-031-210100-
...NORTHWEST COLORADO...

CITY           SKY/WX    TMP DP  RH WIND       PRES   REMARKS
CRAIG          LGT RAIN  37  34  89 SW20G28   29.96R
HAYDEN         LGT RAIN  37  35  92 S7        29.98R
MEEKER         SNOW      33  31  92 W3        30.01R VSB 1/2
RABBIT EARS PA NOT AVBL
STEAMBOAT SPGS CLOUDY    32  32 100 CALM      29.97S
WALDEN         CLOUDY    39  32  75 S8        29.95R
$$

COZ006>008-011-210100-
...WEST CENTRAL VALLEYS...

CITY           SKY/WX    TMP DP  RH WIND       PRES   REMARKS
GRAND JUNCTION CLOUDY    50  32  50 NE13      29.99R
MONTROSE       CLOUDY    48  22  35 N7        30.01R
EAGLE          LGT RAIN  37  29  72 SW17G24   30.00R
RIFLE          LGT RAIN  37  35  92 S6        30.04R
DELTA          NOT AVBL
NUCLA          MOCLDY    50  19  29 SW8G16    30.01R
$$

COZ017>023-064>068-210100-
...SOUTHWEST COLORADO...

CITY           SKY/WX    TMP DP  RH WIND       PRES   REMARKS
DURANGO        MOSUNNY   49  14  24 W21       29.96R
CORTEZ         PTSUNNY   50  21  32 NW9       29.99S
PAGOSA SPRINGS CLOUDY    42  12  29 W15G23    29.99R
TELLURIDE      PTSUNNY   33  22  63 SE3       30.04S
WOLF CREEK PAS PTSUNNY   19  18  93 S12G17    30.06F FOG     WCI   7
$$

COZ009-010-012-014-032>034-037-058>063-210100-
...CENTRAL COLORADO...

CITY           SKY/WX    TMP DP  RH WIND       PRES   REMARKS
ASPEN          LGT SNOW  32  30  92 N12       29.99R FOG     WCI  23
BUENA VISTA    PTSUNNY   38  24  56 W18G24    29.93F
COPPER MTN     NOT AVBL
BERTHOUD PASS  FAIR      21  10  63 NW13      30.00S WCI   9
COTTONWOOD PAS PTSUNNY   32  25  74 W13G30    29.95F WCI  22
GUNNISON       CLOUDY    39  19  44 N12       29.98S
KREMMLING      PTSUNNY   43  36  75 NW7       29.95R
LEADVILLE      LGT SNOW  26  25  96 S7        29.96R FOG     WCI  18
MONARCH PASS   PTSUNNY   19  16  86 W26G32    30.08S FOG     WCI   1
SALIDA         FAIR      40  29  65 CALM      30.01R
SUNLIGHT       LGT SNOW  23  21  93 SW10G20   30.05R VSB 1   WCI  12
WILKERSON PASS SNOW      23  21  93 SW8       29.99F VSB 1/4 WCI  14
$$

COZ069>075-210100-
...SAN LUIS VALLEY/SANGRE DE CRISTO MOUNTAINS...

CITY           SKY/WX    TMP DP  RH WIND       PRES   REMARKS
ALAMOSA        MOSUNNY   46   8  21 W28G35    29.93R
DEL NORTE      FAIR      42  12  29 W18G31    29.95S
LA VETA PASS   PTSUNNY   30  18  59 SW22G36   30.05R WCI  17
SAGUACHE       NOT AVBL
$$

COZ035-036-038>040-210100-
...NORTHERN COLORADO FRONT RANGE...

CITY           SKY/WX    TMP DP  RH WIND       PRES   REMARKS
DENVER INTL AP CLOUDY    39  35  86 SE17G26   29.96S
DMNS CITY PARK NOT AVBL
AURORA         LGT RAIN  40  38  96 SE15      29.96R
FRONT RANGE AP DRIZZLE   41  37  87 SE23G31   29.97S
ERIE MUNI ARPT DRIZZLE   48  37  66 CALM      29.99S
BOULDER MUN AP PTSUNNY   45  37  76 W6        29.93S
CENTENNIAL     LGT RAIN  41  36  82 SE13      29.95R
BROOMFIELD     PTSUNNY   46  39  76 NW6       29.94S
LOVELAND       LGT RAIN  44  34  67 SE18G33   29.96R
LONGMONT       FAIR      51  41  70 W5        29.95R
$$

COZ041-046-047-076>085-087-088-210100-
...PIKES PEAK/PALMER DIVIDE AND SOUTHERN FOOTHILLS...

CITY           SKY/WX    TMP DP  RH WIND       PRES   REMARKS
COLO. SPRINGS  CLOUDY    36  34  92 E21G30    29.98R
A. F. ACADEMY  CLOUDY    35  35  99 SE13      29.98R WCI  26
SCHRIEVER AFB  NOT AVBL
CHEYENNE MTN   NOT AVBL
ELLICOTT       CLOUDY   N/A N/A N/A SE25G32   29.96R
FALCON         SNOW      32  32  99 SE18G32   30.00R VSB<1/4 WCI  21
FORT CARSON    CLOUDY    38  35  88 E14G23    29.97R
LIMON          CLOUDY    34  34 100 SE23G32   30.03R WCI  22
MONUMENT HILL  CLOUDY    32  32 100 SE15G26   29.99R WCI  22
CANON CITY     CLOUDY    45  36  70 NE23G30   29.91R THUNDER
WALSENBURG     MOCLDY    52  30  43 S13G18    29.89R
TRINIDAD       MOSUNNY   47  34  60 E17G24    29.91R
$$

COZ042>045-048>051-090-091-210100-
...NORTHEAST COLORADO...

CITY           SKY/WX    TMP DP  RH WIND       PRES   REMARKS
GREELEY ARPT   NOT AVBL
AKRON          LGT RAIN  36  35  96 SE24G35   30.04F
BURLINGTON     LGT RAIN  38  37  97 E15       30.09R FOG
WRAY           CLOUDY    41  41 100 E15G26    30.10F
YUMA           NOT AVBL
STERLING       NOT AVBL
HOLYOKE        LGT RAIN  41  37  87 SE21G28   30.11F
FORT MORGAN    CLOUDY    37  32  80 SE17G24   30.06R
$$

COZ086-089-092>099-210100-
...SOUTHEAST COLORADO...

CITY           SKY/WX    TMP DP  RH WIND       PRES   REMARKS
PUEBLO         CLOUDY    48  35  60 E25G44    29.90R
LA JUNTA       CLOUDY    43  39  86 E18       29.99F
LAMAR          RAIN      42  39  89 E8        30.05R FOG
SPRINGFIELD      N/A     40  39  97 E15       30.02R
$$





USA.gov is the U.S. government's official web portal to all federal, state and local government web resources and services.